Kiana, AK

2:08 AM AKST on January 19, 2017 (GMT -0900)
Baker Memorial

Weather History for PAIK - September, 2013

Change the Weather History Date:

Sunday, September 8, 2013

  Actual Average (PASK) Record (PASK)
Temperature  
Mean Temperature 42 °F -  
Max Temperature 39 °F 48 °F 60 °F (1997)
Min Temperature 30 °F 38 °F 33 °F (1996)
Degree Days  
Heating Degree Days 22    
Moisture  
Dew Point 37 °F    
Average Humidity 79    
Maximum Humidity 96    
Minimum Humidity 53    
Precipitation  
Precipitation 0.00 in - - ()
Sea Level Pressure  
Sea Level Pressure 29.84 in    
Wind  
Wind Speed 3 mph (WNW)    
Max Wind Speed 9 mph    
Max Gust Speed -    
Visibility 10 miles    
Events      
Averages and records for this station are not official NWS values.
T = Trace of Precipitation, MM = Missing Value Source: NWS Daily Summary

Daily Weather History Graph

Daily Weather History Graph

Search for Another Location

Airport or City:

Trip Planner

Search our weather history database for the weather conditions in past years. The results will help you decide how hot, cold, wet, or windy it might be!

Date:

Astronomy

Sep. 08, 2013 Rise Set
Actual Time 7:38 AM AKDT 9:37 PM AKDT
Civil Twilight 6:40 AM AKDT 10:34 PM AKDT
Nautical Twilight 5:21 AM AKDT 11:52 PM AKDT
Astronomical Twilight 3:11 AM AKDT 2:06 AM AKDT
Moon 1:05 PM AKDT (9/8) 9:16 PM AKDT (9/8)
Length of Visible Light 15h 53m
Length of Day
13h 59m
Waxing Crescent, 12% of the Moon is Illuminated
Sep 8
Waxing Crescent
Sep 12
First Quarter
Sep 19
Full
Sep 26
Last Quarter
Oct 4
New

Hourly Weather History & Observations

Time (AKDT) Temp. Windchill Dew Point Humidity Pressure Visibility Wind Dir Wind Speed Gust Speed Precip Events Conditions
12:01 AM 42.1 °F - 39.9 °F 92% 29.86 in 10.0 mi Calm Calm - N/A   Clear
1:01 AM 42.1 °F - 39.9 °F 92% 29.86 in 10.0 mi Calm Calm - N/A   Clear
2:01 AM 39.0 °F 36.8 °F 37.0 °F 93% 29.85 in 10.0 mi NNW 3.5 mph - N/A   Clear
3:01 AM 35.1 °F 31.0 °F 34.0 °F 96% 29.84 in 10.0 mi NNW 4.6 mph - N/A   Clear
4:01 AM 35.1 °F - 34.0 °F 96% 29.84 in 10.0 mi Calm Calm - N/A   Clear
5:01 AM 35.1 °F 31.0 °F 34.0 °F 96% 29.84 in 10.0 mi North 4.6 mph - N/A   Clear
6:01 AM 34.0 °F 31.0 °F 33.1 °F 96% 29.83 in 10.0 mi NNW 3.5 mph - N/A   Clear
7:01 AM 33.1 °F - 32.0 °F 96% 29.83 in 10.0 mi Calm Calm - N/A   Clear
8:01 AM 30.0 °F - 28.9 °F 96% 29.84 in 10.0 mi Calm Calm - N/A   Clear
9:01 AM 36.0 °F - 34.0 °F 93% 29.84 in 10.0 mi Calm Calm - N/A   Clear
10:01 AM 39.9 °F 37.8 °F 36.0 °F 86% 29.85 in 10.0 mi North 3.5 mph - N/A   Clear
11:01 AM 41.0 °F 37.1 °F 36.0 °F 82% 29.85 in 10.0 mi NNW 5.8 mph - N/A   Clear
12:01 PM 45.0 °F 43.5 °F 37.0 °F 74% 29.85 in 10.0 mi SE 3.5 mph - N/A   Clear
1:01 PM 48.0 °F - 37.9 °F 68% 29.84 in 10.0 mi Calm Calm - N/A   Clear
2:01 PM 51.1 °F - 39.0 °F 63% 29.84 in 10.0 mi Variable 3.5 mph - N/A   Clear
3:01 PM 53.1 °F - 39.0 °F 59% 29.84 in 10.0 mi South 3.5 mph - N/A   Clear
4:01 PM 55.0 °F - 39.0 °F 55% 29.84 in 10.0 mi Variable 4.6 mph - N/A   Clear
5:01 PM 55.9 °F - 39.0 °F 53% 29.83 in 10.0 mi Variable 5.8 mph - N/A   Clear
6:01 PM 55.9 °F - 39.9 °F 55% 29.84 in 10.0 mi Variable 6.9 mph - N/A   Clear
7:01 PM 55.0 °F - 39.9 °F 57% 29.84 in 10.0 mi WSW 9.2 mph - N/A   Clear
8:01 PM 52.0 °F - 41.0 °F 66% 29.85 in 10.0 mi WSW 8.1 mph - N/A   Clear
9:01 PM 48.0 °F - 39.0 °F 71% 29.85 in 10.0 mi WSW 9.2 mph - N/A   Clear
10:01 PM 45.0 °F - 39.0 °F 80% 29.86 in 10.0 mi Calm Calm - N/A   Clear
11:01 PM 42.1 °F 37.7 °F 39.0 °F 89% 29.87 in 10.0 mi SSW 6.9 mph - N/A   Clear